Branson, MO

4:08 AM CDT on May 23, 2017 (GMT -0500)
Branson

Weather History for KBBG - March, 2014

Change the Weather History Date:

Sunday, March 23, 2014

  Actual Average (KHRO) Record (KHRO)
Temperature  
Mean Temperature 39 °F -  
Max Temperature 46 °F 60 °F 93 °F (1929)
Min Temperature 32 °F 38 °F 20 °F (1968)
Degree Days  
Heating Degree Days 26    
Moisture  
Dew Point 17 °F    
Average Humidity 42    
Maximum Humidity 51    
Minimum Humidity 32    
Precipitation  
Precipitation 0.00 in - - ()
Sea Level Pressure  
Sea Level Pressure 30.31 in    
Wind  
Wind Speed 9 mph (NNE)    
Max Wind Speed 14 mph    
Max Gust Speed 20 mph    
Visibility 10 miles    
Events Rain    
Averages and records for this station are not official NWS values.
T = Trace of Precipitation, MM = Missing Value Source: NWS Daily Summary

Daily Weather History Graph

Daily Weather History Graph

Search for Another Location

Airport or City:

Trip Planner

Search our weather history database for the weather conditions in past years. The results will help you decide how hot, cold, wet, or windy it might be!

Date:

Astronomy

Mar. 23, 2014 Rise Set
Actual Time 7:11 AM CDT 7:27 PM CDT
Civil Twilight 6:46 AM CDT 7:53 PM CDT
Nautical Twilight 6:16 AM CDT 8:23 PM CDT
Astronomical Twilight 5:45 AM CDT 8:53 PM CDT
Moon 1:36 AM CDT 12:01 PM CDT
Length of Visible Light 13h 06m
Length of Day
12h 15m
Waning Gibbous, 54% of the Moon is Illuminated
Mar 23
Waning Gibbous
Mar 23
Last Quarter
Mar 30
New
Apr 7
First Quarter
Apr 15
Full

Hourly Weather History & Observations

Time (CDT) Temp. Windchill Dew Point Humidity Pressure Visibility Wind Dir Wind Speed Gust Speed Precip Events Conditions
12:15 AM 42.8 °F 37.0 °F 24.8 °F 49% 30.24 in 10.0 mi NE 10.4 mph - N/A Rain Light Rain
12:35 AM 44.6 °F 39.7 °F 23.0 °F 43% 30.24 in 10.0 mi NNE 9.2 mph - N/A   Overcast
12:55 AM 42.8 °F 40.1 °F 23.0 °F 46% 30.25 in 10.0 mi NNE 4.6 mph - N/A   Overcast
1:15 AM 42.8 °F 37.0 °F 23.0 °F 46% 30.26 in 10.0 mi NNE 10.4 mph 16.1 mph N/A   Overcast
1:35 AM 41.0 °F 36.4 °F 21.2 °F 45% 30.26 in 10.0 mi NNE 6.9 mph - N/A   Overcast
1:55 AM 41.0 °F 35.8 °F 19.4 °F 42% 30.27 in 10.0 mi NNE 8.1 mph - N/A   Overcast
2:15 AM 41.0 °F 37.1 °F 19.4 °F 42% 30.27 in 10.0 mi NNE 5.8 mph - N/A Rain Light Rain
2:35 AM 41.0 °F 34.3 °F 19.4 °F 42% 30.29 in 10.0 mi North 11.5 mph - N/A   Overcast
2:55 AM 39.2 °F 31.6 °F 19.4 °F 45% 30.29 in 10.0 mi NNE 12.7 mph - N/A   Overcast
3:15 AM 39.2 °F 33.0 °F 17.6 °F 42% 30.29 in 10.0 mi North 9.2 mph 19.6 mph N/A   Overcast
3:35 AM 39.2 °F 33.0 °F 17.6 °F 42% 30.29 in 10.0 mi North 9.2 mph 18.4 mph N/A   Mostly Cloudy
3:55 AM 37.4 °F 30.8 °F 17.6 °F 45% 30.30 in 10.0 mi North 9.2 mph - N/A   Overcast
4:15 AM 37.4 °F 32.1 °F 17.6 °F 45% 30.30 in 10.0 mi North 6.9 mph 16.1 mph N/A   Mostly Cloudy
4:35 AM 37.4 °F 29.8 °F 17.6 °F 45% 30.30 in 10.0 mi North 11.5 mph - N/A   Overcast
4:55 AM 35.6 °F 27.1 °F 17.6 °F 48% 30.31 in 10.0 mi North 12.7 mph 17.3 mph N/A   Overcast
5:15 AM 35.6 °F 26.6 °F 17.6 °F 48% 30.32 in 10.0 mi North 13.8 mph - N/A   Overcast
5:35 AM 35.6 °F 26.6 °F 17.6 °F 48% 30.34 in 10.0 mi NNW 13.8 mph 18.4 mph N/A   Overcast
5:55 AM 32.0 °F 23.0 °F 15.8 °F 51% 30.34 in 10.0 mi North 11.5 mph 17.3 mph N/A   Mostly Cloudy
6:15 AM 32.0 °F 26.4 °F 15.8 °F 51% 30.34 in 10.0 mi NNE 5.8 mph 17.3 mph N/A   Mostly Cloudy
6:35 AM 32.0 °F 23.6 °F 15.8 °F 51% 30.35 in 10.0 mi North 10.4 mph - N/A   Partly Cloudy
6:50 AM 32.0 °F 22.1 °F 15.8 °F 51% 30.36 in 10.0 mi North 13.8 mph - N/A   Partly Cloudy
7:45 AM 32.0 °F 23.0 °F 8.6 °F 38% 30.38 in 10.0 mi NNE 11.5 mph 16.1 mph N/A   Partly Cloudy
8:45 AM 32.0 °F 23.6 °F 8.6 °F 38% 30.39 in 10.0 mi NNE 10.4 mph - N/A   Scattered Clouds
9:45 AM 33.8 °F 25.8 °F 14.0 °F 44% 30.41 in 10.0 mi NNW 10.4 mph - N/A   Scattered Clouds
10:45 AM 37.4 °F 31.4 °F 15.8 °F 41% 30.41 in 10.0 mi NNW 8.1 mph - N/A   Partly Cloudy
11:51 AM 39.2 °F 33.0 °F 17.6 °F 42% 30.41 in 10.0 mi North 9.2 mph - N/A   Scattered Clouds
12:51 PM 41.0 °F 33.9 °F 19.4 °F 42% 30.40 in 10.0 mi NNW 12.7 mph 19.6 mph N/A   Partly Cloudy
1:45 PM 44.6 °F 38.4 °F 19.4 °F 37% 30.37 in 10.0 mi NNW 12.7 mph - N/A   Partly Cloudy
2:45 PM 46.4 °F 41.1 °F 19.4 °F 34% 30.34 in 10.0 mi NNW 11.5 mph 18.4 mph N/A   Clear
3:45 PM 46.4 °F 42.4 °F 19.4 °F 34% 30.30 in 10.0 mi NW 8.1 mph 18.4 mph N/A   Clear
4:46 PM 46.4 °F 41.9 °F 17.6 °F 32% 30.29 in 10.0 mi North 9.2 mph 16.1 mph N/A   Clear
5:58 PM 46.4 °F 41.9 °F 17.6 °F 32% 30.28 in 10.0 mi North 9.2 mph - N/A   Clear
6:47 PM 46.4 °F 43.5 °F 17.6 °F 32% 30.28 in 10.0 mi NNE 5.8 mph - N/A   Clear
7:55 PM 41.0 °F 38.0 °F 17.6 °F 39% 30.29 in 10.0 mi NE 4.6 mph - N/A   Partly Cloudy
8:46 PM 39.2 °F - 15.8 °F 39% 30.30 in 10.0 mi Calm Calm - N/A   Partly Cloudy
9:15 PM 37.4 °F - 17.6 °F 45% 30.31 in 10.0 mi Calm Calm - N/A   Clear
9:35 PM 39.2 °F - 15.8 °F 39% 30.31 in 10.0 mi Calm Calm - N/A   Clear
9:55 PM 37.4 °F 34.9 °F 15.8 °F 41% 30.30 in 10.0 mi ENE 3.5 mph - N/A   Clear
10:15 PM 37.4 °F 33.8 °F 14.0 °F 38% 30.30 in 10.0 mi ENE 4.6 mph - N/A   Clear
10:35 PM 37.4 °F 34.9 °F 14.0 °F 38% 30.30 in 10.0 mi ENE 3.5 mph - N/A   Partly Cloudy
10:55 PM 35.6 °F 32.8 °F 14.0 °F 41% 30.29 in 10.0 mi East 3.5 mph - N/A   Scattered Clouds
11:15 PM 35.6 °F 31.7 °F 14.0 °F 41% 30.28 in 10.0 mi East 4.6 mph - N/A   Mostly Cloudy
11:35 PM 35.6 °F 31.7 °F 14.0 °F 41% 30.28 in 10.0 mi East 4.6 mph - N/A   Mostly Cloudy
11:55 PM 33.8 °F - 14.0 °F 44% 30.28 in 10.0 mi Calm Calm - N/A   Partly Cloudy